User: anonymous   Login
Location: Unspecified
(0.0000°N, 0.0000°E)
Time: 17:15:59
(UTC+00:00)
Language:

APRIZESAT 1 (LATINSAT C) - Orbit

View from above orbital plane
View from above orbital plane
View from above satellite
View from above satellite

Ground track
Ground track

The orbit is defined by the following mean orbital elements,

1 28372U          26106.26487341 +.00000000 +00000-0 +50573-4 0 00009
2 28372  98.6332 115.2978 0044218 345.1229  14.8661 14.51744900    04
Epoch (UTC): 16 April 2026 06:21:25
Eccentricity: 0.0044218
inclination: 98.6332°
perigee height: 689 km
apogee height: 751 km
right ascension of ascending node: 115.2978°
argument of perigee: 345.1229°
revolutions per day: 14.51744900
mean anomaly at epoch: 14.8661°

The dashed part of the orbit path shows where the satellite is in the earth's shadow,  

DLR